x

Buoy B01 - Western Maine Shelf (44030) Wave Buoy

11:04 - Mon 29th Jun 2015 All times are EDT. -4 hours from GMT.

  • Sig Wave height 5.2ft
  • Peak Period 11s
  • Wind
    4mph
  • Sea Temp 56°f
  • Aire Temp 58°f
  • Sea Pressure 1011.6mb
  • Buoy B01 - Western Maine Shelf
  • Buoy B01 - Western Maine Shelf

More Historic Weather Station data

Upgrade to MSW Pro to gain access to the past 30 days of data for over 8000 Wavebouys and Weather Stations around the globe.

Join Pro

Comparision Forecast

View Surf forecast
   
lun 06/29 11:04 5ft 11s 4
mph
1011.6mb 56f 58f
10:04 5ft 11s 4 7 mph 1011.4mb 57f 58f
9:04 5ft 8s 7 9 mph 1010.8mb 57f 58f
8:04 6ft 11s 11
mph
1010.6mb 56f 58f
7:04 4.5ft 11s 11 13 mph 1010.2mb 56f 58f
6:04 6ft 11s 11
mph
1010mb 56f 58f
5:04 4.5ft 8s 13
mph
1009.7mb 56f 58f
4:04 4.5ft 8s 11 13 mph 1009.6mb 56f 57f
3:04 5ft 11s 9 11 mph 1009.8mb 55f 57f
2:04 5.5ft 11s 11 13 mph 1009.9mb 56f 57f
1:04 5ft 11s 11 13 mph 1009.7mb 56f 56f
12:04 6ft 11s 13
mph
1009.6mb 56f 56f
11:04 5ft 11s 11 13 mph 1009.2mb 56f 55f
10:04 6.5ft 11s 11 13 mph 1008.9mb 56f 55f
9:04 6ft 11s 9 11 mph 1008.9mb 55f 55f
8:04 7ft 11s 9 11 mph 1008.9mb 55f 54f
7:04 8ft 11s 9 11 mph 1009.1mb 55f 54f
6:04 8ft 8s 7 9 mph 1008.7mb 55f 54f
5:04 7.5ft 11s 7 9 mph 1007.9mb 55f 54f
4:04 7ft 8s 7 9 mph 1007.4mb 55f 54f
3:04 7ft 11s 7 11 mph 1006.9mb 55f 54f
2:04 9ft 11s 9 13 mph 1006.9mb 55f 54f
1:04 9.5ft 11s 11 16 mph 1006.5mb 55f 54f
12:04 9ft 11s 13 16 mph 1006.4mb 55f 53f
dom 06/28 11:04 11ft 11s 16 18 mph 1006.6mb 55f 53f
10:04 10.5ft 11s 18 22 mph 1006.3mb 55f 53f
9:04 13ft 11s 25 29 mph 1006.2mb 55f 52f
8:04 12ft 8s 25 31 mph 1005.9mb 55f 51f
7:04 13ft 8s 27 31 mph 1005.8mb 55f 52f
6:04 13ft 11s 27 34 mph 1005.8mb 55f 52f
5:04 11ft 8s 29 36 mph 1006.3mb 55f 52f
4:04 11ft 8s 29 34 mph 1007.2mb 55f 52f
3:04 13ft 8s 29 36 mph 1007mb 56f 53f
2:04 12.5ft 8s 34 43 mph 1007.3mb 56f 54f
1:04 10ft 8s 31 38 mph 1008.2mb 57f 54f
12:04 8ft 8s 27 36 mph 1009.5mb 57f 55f
11:04 7ft 6s 25 29 mph 1010.8mb 57f 55f
10:04 6ft 6s 25 29 mph 1011.4mb 57f 55f
9:04 5ft 5s 27 34 mph 1012mb 57f 56f
8:04 5ft 5s 22 25 mph 1012.9mb 59f 56f
7:04 4.5ft 5s 18 22 mph 1014.5mb 60f 57f
6:04 3ft 5s 18 22 mph 1014.3mb 60f 59f
5:04 2.5ft 4s 16 20 mph 1014.9mb 60f 58f
4:04 2.5ft 4s 13 16 mph 1016mb 60f 59f
3:04 2.5ft 8s 13 16 mph 1016.7mb 61f 59f
2:04 2.5ft 4s 11 13 mph 1017.4mb 61f 59f
1:04 2.5ft 4s 11 13 mph 1018.2mb 61f 60f
12:04 2.5ft 4s 9 13 mph 1019.2mb 61f 60f
sáb 06/27 11:04 2.5ft 4s 9 11 mph 1019.8mb 61f 61f
10:04 2.5ft 4s 9 11 mph 1020.3mb 60f 61f
9:04 2.5ft 4s 13 16 mph 1019.9mb 60f 61f
8:04 2.5ft 3s 13 18 mph 1019.9mb 61f 61f
7:04 2.5ft 8s 16 18 mph 1020.3mb 61f 61f
6:04 2ft 11s 11
mph
1020.3mb 60f 62f
5:04 0.7ft  -  7 9 mph 1020.7mb 61f 62f
4:04 1.3ft 8s 9
mph
1021.1mb 61f 61f
3:04 1ft 8s 7 9 mph 1020.8mb 62f 62f
2:04 1.3ft 8s 4 7 mph 1020.7mb 62f 62f
1:04 1ft 8s 4
mph
1020.8mb 62f 61f
12:04 1ft 11s 4
mph
1021.3mb 61f 60f
11:04 1ft 8s 4
mph
1021.3mb 61f 60f
10:04 1.3ft 8s 2
mph
1021.4mb 60f 60f
9:04 1.3ft 8s 4
mph
1021.3mb 60f 59f
8:04 1.3ft 8s 9
mph
1020.4mb 60f 59f
7:04 1.3ft 8s 9
mph
1020mb 61f 59f
6:04 1.3ft 11s 4 7 mph 1019.5mb 61f 59f
5:04 1.3ft 8s 4 7 mph 1018.8mb 61f 59f
4:04 1.3ft 8s 4
mph
1018.8mb 61f 59f
3:04 1.3ft 8s 2
mph
1018.7mb 61f 58f
2:04 1ft 8s 2 4 mph 1018.6mb 61f 58f
1:04 1ft 8s 4
mph
1018.4mb 61f 59f
12:04 1.3ft 8s 2
mph
1018mb 61f 59f
vie 06/26 11:04 1.3ft 8s 2
mph
1017.8mb 61f 59f
10:04 1.3ft 8s 2
mph
1017.6mb 62f 60f
9:04 1.3ft 8s 2
mph
1017.1mb 62f 60f
8:04 1.3ft 8s 7
mph
1016.7mb 62f 60f
7:04 1.6ft 8s 9
mph
1016.4mb 62f 60f
6:04 1.6ft 8s 9
mph
1016mb 62f 60f
5:04 1ft 3s 9
mph
1015.7mb 62f 60f
4:04 1.3ft 8s 9
mph
1015.9mb 62f 60f
3:04 1.3ft 8s 9
mph
1016mb 62f 59f
2:04 1.3ft 8s 11
mph
1016.2mb 62f 60f
1:04 1.3ft 8s 11
mph
1016.5mb 62f 61f
12:04 1ft 8s 7
mph
1016.4mb 61f 61f
11:04 1ft 8s 4 7 mph 1016.1mb 61f 62f
10:04 1.3ft 8s 9 11 mph 1015.9mb 61f 60f
9:04 1.3ft 8s 4 7 mph 1015.6mb 61f 60f
8:04 1.6ft 8s 7 9 mph 1015.7mb 61f 59f
7:04 1.3ft 2s 13 16 mph 1015.4mb 61f 60f
6:04 1.3ft 8s 13 16 mph 1014.9mb 61f 60f
5:04 1.6ft 8s 13 16 mph 1014.2mb 61f 62f